NOAA 16 DEB

Satellite information

Favourite Embed

Satellite Type and Status

DEBRISIN ORBIT

Key statistics

Satellite NOAA 16 DEB at a glance.

Uptime

8996

Days in orbit

Revolutions

≈ 14.2

Per day

Orbit

SSO

Sun Synchronous Orbit

Inclination

98.9

Latest

Satellite identification and parameters

Extended collection of information and parameters for NOAA 16 DEB.

Object identification

Identified? True

Debris? True

Object name: NOAA 16 DEB

International designator: 2000-055PZ

Object number (NORAD): 42333

Object ID (CCSDS): 42333

Country: UNITED STATES OF AMERICA (US)

Current information (Y/N): Y

RCS size: SMALL

Orbital parameters

Period: 101.087 minutes

Inclination: 98.9492 deg

SMA: 7188.261 km

Apoapsis: 819.759 km

Periapsis: 800.493 km

RAAN: 242.5098 deg

Eccentricy: 0.0013401

Argument of periapsis: 313.7473 deg

Mean anomaly: 46.2595 deg

Mean motion: 14.24514992 rev/day

Mean motion (dot): 0.00004913 rev/day2

B* drag term: 0.0021354 1/REarth

Two-line elements (TLE)

Creation date: May 9, 2025, 2:46 a.m.

Reference frame: TEME

Reference center: EARTH

Epoch: May 8, 2025, 6:05 a.m. UTC

TLE line 0: 0 NOAA 16 DEB

TLE line 1: 1 42333U 00055PZ 25128.25399124 .00004913 00000-0 21354-2 0 9992

TLE line 2: 2 42333 98.9492 242.5098 0013401 313.7473 46.2595 14.24514992472268

Live tracking on map

Real-time ground track for satellite NOAA 16 DEB.

In-orbit conjunctions

A list of the most updated potential collisions computed for object NOAA 16 DEB.

Target Orbit TCA Probability of collision Miss distance Type
FASAT B SSO 2025-05-02 19:58:30 0.0001879357 861.0 (m) PAYLOAD
RADCAL LEO 2024-08-27 11:52:19 0.0002773255 708.0 (m) PAYLOAD

Associated space launch

The NOAA K, L and M POES satellites begin the fifth generation of improved environmental monitoring in support of NOAA missions. The instrument payload has significant improvements and additions/deletions. The instrument changes have effected the spacecraft subsystems and data formats.

NOAA 16 DEB was lifted into orbit during the mission ‘Titan II SLV | NOAA 16’, on board a Titan II SLV space rocket.

The launch took place on Sept. 21, 2000, 10:22 a.m. from Space Launch Complex 4W.

For more information about the launch, click the button.

Launch to space Titan II SLV | NOAA 16
Titan II SLV | NOAA 16

Agency: N/A

Status: Launch Successful

Launch date: Sept. 21, 2000, 10:22 a.m. UTC

Rocket: Titan II SLV

Launch pad: Space Launch Complex 4W

Location: Vandenberg SFB, CA, USA

...

Latest news about this satellite

There are no fresh news available about this satellite. Check back as we update our databases every day.


Newsletter sign-up

Weekly statistics, charts and insights to help you stay on top of the space industry.